Regional Weather Roundup
Issued by NWS

Home | Current Version | Previous Version | Graphics & Text | Print | Product List | Glossary On
Versions: 1 2 3 4 5 6 7 8 9 10 11 12 13 14 15 16 17 18 19 20 21 22 23 24 25 26 27 28 29 30 31 32 33 34 35 36 37 38 39 40 41 42 43 44 45 46 47 48 49 50
000
ASUS43 KOAX 280110
RWRNE

WEATHER ROUNDUP FOR NEBRASKA
NATIONAL WEATHER SERVICE OMAHA NE
800 PM CDT MON JUL 27 2015

NOTES: SATELLITE DATA IS BEING USED TO AUGMENT CLOUD COVER ABOVE
       12000 FEET.
       "FAIR" INDICATES FEW OR NO CLOUDS BELOW 12,000 FEET WITH NO
       SIGNIFICANT WEATHER AND/OR OBSTRUCTIONS TO VISIBILITY.

  * THESE STATIONS DO NOT REPORT WEATHER SUCH AS RAIN...SNOW OR FOG.

NEZ001>004-019>022-054>056-280200-
NEBRASKA PANHANDLE

CITY           SKY/WX    TMP DP  RH WIND       PRES   REMARKS
SCOTTSBLUFF    PTSUNNY   76  58  53 NE13      29.72S THUNDER
ALLIANCE       MOSUNNY   85  66  53 S8        29.72R
CHADRON        MOSUNNY   73  57  57 NW23G44   29.71R
KIMBALL        SUNNY     90  49  24 S16G23    29.77R
SIDNEY         MOSUNNY   93  56  28 S18G24    29.75S HX  91
$$

NEZ057>060-069>072-079>082-280200-
SOUTHWEST NEBRASKA

CITY           SKY/WX    TMP DP  RH WIND       PRES   REMARKS
NORTH PLATTE   PTSUNNY   88  71  57 SE13G22   29.71F HX  94
IMPERIAL       SUNNY     92  66  42 S18G29    29.72F HX  94
LEXINGTON      PTCLDY    88  73  61 SE14      29.75F HX  96
MCCOOK         SUNNY     92  69  47 S16G24    29.72F HX  97
OGALLALA       MOSUNNY   89  68  49 S18G24    29.71S HX  93
$$

NEZ005>010-023>029-035>040-094-280200-
NORTH CENTRAL NEBRASKA

CITY           SKY/WX    TMP DP  RH WIND       PRES   REMARKS
VALENTINE      MOSUNNY   90  69  50 S23       29.67F HX  94
AINSWORTH      SUNNY     87  70  57 S22G28    29.71F HX  92
BROKEN BOW     CLEAR     88  71  57 S16G26    29.75F HX  94
O`NEILL        PTCLDY    86  72  63 S18G25    29.76S HX  92
ORD            CLEAR     86  72  62 SE18G26   29.75S HX  92
THEDFORD       MOSUNNY   89  71  54 S17G24    29.73S HX  94
$$

NEZ041-046>049-061>064-073>077-083>087-280200-
SOUTH CENTRAL NEBRASKA

CITY           SKY/WX    TMP DP  RH WIND       PRES   REMARKS
GRAND ISLAND   CLEAR     84  74  71 SE14      29.79F HX  91
AURORA         CLEAR     84  75  75 SE12      29.79F HX  92
HASTINGS       CLEAR     86  75  69 SE13      29.79S HX  95
HEBRON         CLEAR     88  74  63 SE7       29.80S HX  96
HOLDREGE       MOCLDY    86  69  56 SE10      29.77F HX  90
KEARNEY *      CLOUDY    86  73  66 SE12      29.78R HX  93
YORK           CLEAR     84  75  74 SE9       29.80S HX  92
$$

NEZ011>018-030>034-042>045-280200-
NORTHEAST NEBRASKA

CITY           SKY/WX    TMP DP  RH WIND       PRES   REMARKS
NORFOLK        CLEAR     85  72  65 SE14      29.78S HX  91
ALBION         CLEAR     84  70  62 SE10      29.79S
BLAIR          PTCLDY    79  71  76 E13G21    29.84S
COLUMBUS *     CLEAR     84  73  70 S7        29.79S HX  91
FREMONT        CLEAR     86  74  67 SE13G20   29.82S HX  93
TEKAMAH        PTCLDY    81  73  76 SE18G24   29.83R
WAYNE          CLEAR     83  73  71 SE14      29.80S HX  90
$$

NEZ050>053-065>068-078-088>093-280200-
SOUTHEAST NEBRASKA

CITY           SKY/WX    TMP DP  RH WIND       PRES   REMARKS
LINCOLN        CLEAR     88  76  67 SE15      29.81S HX  99
OMAHA EPPLEY   MOCLDY    80  70  71 SE17      29.84F
BEATRICE       CLEAR     87  79  77 SE7       29.81F HX 100
FALLS CITY     PTCLDY    85  79  82 E9        29.83S HX  98
NEBRASKA CITY  PTCLDY    84  75  73 E16       29.85R HX  92
PLATTSMOUTH    CLOUDY   N/A N/A N/A E16G22    29.85S
$$

NEZ044-045-051>053-067-280200-
OMAHA AREA

CITY           SKY/WX    TMP DP  RH WIND       PRES   REMARKS
OMAHA EPPLEY   MOCLDY    80  70  71 SE17      29.84F
BLAIR          PTCLDY    79  71  76 E13G21    29.84S
FREMONT        CLEAR     86  74  67 SE13G20   29.82S HX  93
MILLARD        MOCLDY    81  73  78 E15G22    29.83S
OFFUTT AFB     PTCLDY    78  71  78 E14       29.84S
PLATTSMOUTH    CLOUDY   N/A N/A N/A E16G22    29.85S
WAHOO          FAIR      85  77  78 SE14      29.81S HX  95
$$


USA.gov is the U.S. government's official web portal to all federal, state and local government web resources and services.